Probability
0 0 0 0 0 0 0 0 0 0 0 0 0 0 0 0 0 0 0 0 0 0 0 0 0 0 0 0 0 0 0 0 0 0 0 0 0 0 0 0 0 0 0
0 0 0 0 0 0 0 0 0 0 0 0 0 0 0 0 0 0 0 0 0 0 0 0 0 0 0 0 0 0 0 0 0 0 0 0 0 0 0 0 0 0 0
0 0 0 0 0 0 0 0 0 0 0 0 0 0 0 0 0 0 0 0 0 0 0 0 0 0 0 0 0 0 0 0 0 0 0 0 0 0 0 0 0 0 0
0 0 0 0 0 0 0 0 0 0 0 0 0 0 0 0 0 0 0 0 0 0 0 0 0 0 0 0 0 0 0 0 0 0 0 0 0 0 0 0 0 0 0
0 0 0 0 0 0 0 0 0 0 0 0 0 0 0 0 0 0 0 0 0 0 0 0 0 0 0 0 0 0 0 0 0 0 0 0 0 0 0 0 0 0 0
0 0 0 0 0 0 0 0 0 0 0 0 0 0 0 0 0 0 0 0 0 0 0 0 0 0 0 0 0 0 0 0 0 0 0 0 0 0 0 0 0 0 0
0 0 0 0 0 0 0 0 0 0 0 0 0 0 0 0 0 0 0 0 0 0 0 0 0 0 0 0 0 0 0 0 0 0 0 0 0 0 0 0 0 0 0
0 0 0 0 0 0 0 0 0 0 0 0 0 0 0 0 0 0 0 0 0 0 0 0 0 0 0 0 0 0 0 0 0 0 0 0 0 0 0 0 0 0 0
0 0 0 0 0 0 0 0 0 0 0 0 0 0 0 0 0 0 0 0 0 0 0 0 0 0 0 0 0 0 0 0 0 0 0 0 0 0 0 0 0 0 0
0 0 0 0 0 0 0 0 0 0 0 0 0 0 0 0 0 0 0 0 0 0 0 0 0 0 0 0 0 0 0 0 0 0 0 0 0 0 0 0 0 0 0
0 0 0 0 0 0 0 0 0 0 0 0 0 0 0 0 0 0 0 0 0 0 0 0 0 0 0 0 0 0 0 0 0 0 0 0 0 0 0 0 0 0 0
0 0 0 0 0 0 0 0 0 0 0 0 0 0 0 0 0 0 0 0 0 0 0 0 0 0 0 0 0 0 0 0 0 0 0 0 0 0 0 0 0 0 0
0 0 0 0 0 0 0 0 0 0 0 0 0 0 0 0 0 0 0 0 0 0 0 0 0 0 0 0 0 0 0 0 0 0 0 0 0 0 0 0 0 0 0
0 0 0 0 0 0 0 0 0 0 0 0 0 0 0 0 0 0 0 0 0 0 0 0 0 0 0 0 0 0 0 0 0 0 0 0 0 0 0 0 0 0 0
0 0 0 0 0 0 0 0 0 0 0 0 0 0 0 0 0 0 0 0 0 0 0 0 0 0 0 0 0 0 0 0 0 0 0 0 0 0 0 0 0 0 0
0 0 0 0 0 0 0 0 0 0 0 0 0 0 0 0 0 0 0 0 0 0 0 0 0 0 0 0 0 0 0 0 0 0 0 0 0 0 0 0 0 0 0
0 0 0 0 0 0 0 0 0 0 0 0 0 0 0 0 0 0 0 0 0 0 0 0 0 0 0 0 0 0 0 0 0 0 0 0 0 0 0 0 0 0 0
0 0 0 0 0 0 0 0 0 0 0 0 0 0 0 0 0 0 0 0 0 0 0 0 0 0 0 0 0 0 0 0 0 0 0 0 0 0 0 0 0 0 0
0 0 0 0 0 0 0 0 0 0 0 0 0 0 0 0 0 0 0 0 0 0 0 0 0 0 0 0 0 0 0 0 0 0 0 0 0 0 0 0 0 0 0
0 0 0 0 0 0 0 0 0 0 0 0 0 0 0 0 0 0 0 0 0 0 0 0 0 0 0 0 0 0 0 0 0 0 0 0 0 0 0 0 0 0 0
0 0 0 0 0 0 0 0 0 0 0 0 0 0 0 0 0 0 0 0 0 0 0 0 0 0 0 0 0 0 0 0 0 0 0 0 0 0 0 0 0 0 0
0 0 0 0 0 0 0 0 0 0 0 0 0 0 0 0 0 0 0 0 0 0 0 0 0 0 0 0 0 0 0 0 0 0 0 0 0 0 0 0 0 0 0
0 0 0 0 0 0 0 0 0 0 0 0 0 0 0 0 0 0 0 0 0 0 0 0 0 0 0 0 0 0 0 0 0 0 0 0 0 0 0 0 0 0 0
0 0 0 0 0 0 0 0 0 0 0 0 0 0 0 0 0 0 0 0 0 0 0 0 0 0 0 0 0 0 0 0 0 0 0 0 0 0 0 0 0 0 0
0 0 0 0 0 0 0 0 0 0 0 0 0 0 0 0 0 0 0 0 0 0 0 0 0 0 0 0 0 0 0 0 0 0 0 0 0 0 0 0 0 0 0
0 0 0 0 0 0 0 0 0 0 0 0 0 0 0 0 0 0 0 0 0 0 0 0 0 0 0 0 0 0 0 0 0 0 0 0 0 0 0 0 0 0 0
Wind_Speed
6 6 6 6 5 4 4 3 3 2 2 2 2 2 3 3 3 3 4 4 4 4 3 3 3 3 2 2 2 1 2 2 1 0 2 2 3 3 3 3 3 5 5
6 5 5 5 5 5 4 3 3 2 1 0 0 1 1 2 2 2 4 4 4 4 3 3 3 3 2 3 2 1 1 1 1 1 0 2 2 2 4 4 4 5 4
10 8 6 5 5 5 4 4 3 2 1 1 1 2 2 3 3 3 3 4 4 4 3 3 3 3 2 2 3 1 1 1 1 1 2 1 2 2 1 3 4 4 4
9 8 7 7 6 5 5 4 4 3 1 1 1 1 1 1 2 2 3 4 5 4 4 3 3 3 2 2 3 2 1 1 1 1 1 2 2 1 2 2 2 4 5
10 9 8 8 7 6 5 4 4 3 2 1 1 1 0 1 2 2 4 4 4 4 4 3 3 3 2 3 3 3 2 1 2 1 1 1 1 2 2 2 2 2 2
8 8 7 6 5 5 4 4 4 3 2 1 1 1 1 1 1 2 3 4 3 3 4 4 3 3 3 3 3 2 2 2 2 2 2 2 2 2 2 3 2 2 2
8 8 7 7 6 6 5 5 4 4 3 2 1 2 2 2 1 1 2 2 2 3 4 4 3 3 3 3 2 2 2 2 2 2 2 2 3 2 2 2 2 2 2
8 8 9 8 7 7 6 5 5 4 4 3 2 2 2 1 1 2 2 2 2 3 4 4 4 4 4 3 2 2 2 2 2 3 3 2 3 3 3 3 2 2 2
9 8 8 7 7 7 7 7 6 5 4 4 3 2 2 2 2 2 2 2 3 3 4 4 4 4 3 3 2 2 3 3 2 3 3 2 3 3 3 3 3 3 3
8 8 7 7 7 7 6 6 6 6 5 4 3 2 3 3 2 1 2 3 3 3 3 4 4 3 3 3 2 2 3 3 3 2 3 3 2 3 3 3 3 4 4
9 8 7 7 6 5 5 5 5 5 4 4 3 2 2 2 1 1 2 2 2 2 3 3 3 3 4 3 3 3 3 3 3 3 3 4 3 3 3 3 3 4 4
8 8 7 6 5 6 5 5 5 5 5 5 4 3 2 1 1 2 2 2 2 2 2 2 3 3 3 3 3 3 3 3 4 4 4 4 3 3 3 2 3 3 4
7 6 6 6 6 6 5 5 6 6 5 5 4 3 2 2 2 2 2 1 2 2 3 2 3 3 3 3 3 3 3 3 4 4 4 4 3 3 3 3 3 3 3
7 7 7 7 6 6 6 5 6 6 6 5 4 4 4 4 3 3 2 2 2 2 3 3 3 3 3 3 3 3 3 4 4 4 4 4 4 4 4 3 3 3 3
7 8 8 7 6 6 6 5 6 5 5 5 5 5 5 4 3 3 3 2 3 3 3 3 4 4 4 3 3 3 4 4 5 5 5 5 6 6 4 3 3 3 3
8 8 8 8 7 7 7 6 6 6 5 6 6 5 5 4 4 4 3 3 3 3 3 3 4 4 4 6 7 4 3 4 4 5 6 6 5 6 7 7 6 5 4
7 8 8 8 8 8 8 8 7 6 6 6 6 6 5 5 5 4 3 4 4 4 4 4 4 5 7 9 8 7 3 4 4 5 5 5 5 5 4 6 7 6 7
6 6 6 7 7 6 6 6 6 6 6 6 6 6 6 6 5 4 5 5 4 4 4 5 5 5 7 9 8 7 3 3 4 4 4 4 5 5 5 4 4 4 5
6 6 6 5 5 6 6 6 5 5 5 5 6 6 6 6 5 5 6 5 4 5 5 5 5 5 7 10 9 7 2 3 5 5 4 4 4 8 7 4 5 6 5
5 5 4 4 4 4 5 6 4 4 5 6 6 6 6 6 6 7 6 5 4 5 5 5 5 6 7 9 9 7 2 3 4 4 4 6 6 8 8 4 4 6 6
5 5 6 4 3 4 6 5 3 3 4 4 3 3 4 5 6 6 5 5 5 5 5 6 6 5 7 9 10 8 3 3 3 3 3 4 9 10 10 7 5 8 7
5 6 6 4 2 4 6 5 2 3 2 1 1 2 3 3 3 4 5 4 4 5 5 5 6 5 5 6 8 9 8 6 4 4 4 5 10 11 11 7 7 9 8
5 5 6 5 3 3 4 4 1 1 0 1 1 2 3 3 3 3 4 4 3 3 4 4 5 6 4 5 9 9 9 8 4 4 7 8 11 11 8 8 9 7 4
5 5 7 6 4 4 4 3 2 2 2 2 2 2 3 3 3 3 3 3 3 3 4 4 5 5 4 4 3 3 4 5 4 4 5 8 9 7 7 7 5 3 3
5 6 7 7 5 5 5 4 4 4 4 3 3 3 3 3 4 3 3 3 3 3 3 4 4 4 5 6 7 4 4 3 3 2 2 2 3 4 4 4 3 3 3
7 7 8 8 6 5 5 5 4 4 4 4 3 3 3 3 3 3 4 5 4 6 5 4 4 4 6 8 6 7 7 5 3 1 2 3 3 4 4 4 4 3 3
Wind_Direction
170 160 153 141 126 113 110 110 93 79 65 37 13 356 341 332 340 339 348 350 350 349 350 349 344 345 335 308 301 287 276 259 209 236 285 269 228 216 221 217 213 216 214
155 157 150 144 138 130 122 118 116 115 97 100 257 265 288 298 306 326 340 341 343 340 343 348 336 337 337 337 333 328 302 277 183 166 226 306 313 251 226 211 216 221 208
166 166 157 155 145 142 147 140 142 135 126 86 37 7 5 352 350 341 336 325 330 335 335 335 335 340 343 329 320 313 259 267 266 191 177 191 241 288 277 227 226 222 211
164 165 161 162 162 166 161 153 155 159 166 113 81 61 14 322 295 298 312 321 331 336 338 339 342 340 338 327 313 326 279 227 249 263 225 213 185 211 310 302 246 229 219
167 169 170 171 172 172 168 168 165 182 202 168 141 136 244 271 298 319 336 337 334 337 337 340 342 336 329 320 315 325 312 252 218 214 223 239 219 195 203 272 296 286 245
169 169 170 165 170 176 175 173 173 202 221 208 142 158 199 265 336 332 335 333 329 328 331 331 336 329 322 314 312 316 316 289 260 238 212 199 202 200 194 230 256 269 267
167 168 170 175 179 184 190 185 183 205 218 211 198 186 194 192 223 275 305 319 320 314 315 326 324 323 320 315 318 327 323 307 290 264 241 223 219 205 194 212 238 256 275
179 180 183 184 188 194 194 189 192 205 211 212 219 206 197 192 227 250 261 279 277 282 297 315 319 322 325 332 332 328 316 320 303 286 268 246 238 217 203 201 204 249 271
190 189 188 188 190 195 199 195 194 201 207 212 210 203 221 218 237 261 271 280 289 297 316 322 324 329 336 340 345 328 316 318 307 292 281 260 248 231 221 210 199 203 240
193 189 188 192 194 198 201 194 191 195 201 204 208 201 221 232 239 250 281 290 305 317 327 334 337 341 342 343 342 323 317 323 311 297 298 286 265 251 234 221 215 206 213
193 191 193 195 192 192 192 192 196 191 195 200 205 203 226 231 230 242 268 277 300 318 328 331 338 339 339 339 344 328 321 322 315 316 308 293 281 263 249 232 218 213 209
192 190 189 189 190 193 195 195 195 192 198 200 201 207 213 205 218 247 267 279 301 314 321 330 335 328 330 332 330 322 326 319 312 308 309 302 298 280 257 238 234 225 217
185 183 185 190 196 200 201 198 194 197 201 197 198 206 213 209 221 240 260 281 296 312 322 323 322 313 313 316 308 306 310 311 307 304 301 297 299 289 275 253 240 237 236
182 182 191 201 205 204 201 198 200 200 197 192 193 203 216 213 216 224 239 256 272 289 300 298 297 292 297 299 294 300 303 306 305 300 295 292 281 272 271 262 247 240 238
192 192 196 203 206 205 205 202 203 201 192 186 197 212 216 212 211 223 238 255 271 276 281 291 296 296 289 276 274 281 289 299 305 305 300 295 292 285 275 263 248 237 237
199 198 197 197 201 202 201 200 204 203 188 189 205 211 209 211 217 228 237 253 267 278 284 287 287 291 286 292 288 277 275 289 296 300 302 300 296 304 308 302 290 258 234
197 195 196 198 199 200 195 197 202 194 189 199 210 211 210 216 226 230 233 246 253 260 273 278 277 277 281 287 292 286 274 280 287 292 298 304 309 314 301 301 303 294 275
187 188 192 196 202 199 194 195 187 184 193 204 214 216 213 222 229 229 239 245 245 251 259 266 269 271 279 285 288 288 281 282 289 291 292 291 299 300 299 293 291 284 277
180 184 185 184 186 189 186 173 179 187 198 214 221 222 216 221 227 233 242 242 241 251 253 257 261 263 276 281 280 276 271 283 294 297 299 297 292 300 308 301 297 296 289
160 161 155 143 154 178 161 156 175 186 216 228 230 228 217 217 226 233 239 238 234 247 258 263 258 253 262 273 273 262 235 271 287 298 301 303 303 306 309 293 288 291 290
145 136 127 127 151 150 134 136 147 207 237 237 235 236 230 229 233 240 243 243 246 255 261 267 270 262 258 269 267 250 214 234 266 284 294 298 309 310 308 300 272 269 279
136 130 120 116 114 127 127 127 162 249 243 215 230 256 260 258 254 249 259 257 252 260 266 270 280 273 263 257 259 250 233 223 231 258 271 285 303 307 306 302 288 287 287
143 131 125 113 87 89 112 116 294 308 71 61 321 303 306 298 291 274 276 280 266 256 265 264 270 278 275 265 257 254 246 238 231 249 267 286 300 308 304 299 303 303 286
144 133 122 113 96 74 74 76 26 44 74 52 4 348 341 326 320 306 288 283 279 272 272 269 268 274 277 269 258 252 250 250 254 266 285 298 301 299 290 295 302 292 277
136 130 126 119 108 86 68 47 37 57 66 50 23 3 352 338 328 321 299 287 269 255 258 265 258 267 280 269 242 219 221 219 233 263 298 306 313 316 311 303 295 289 290
130 122 118 117 111 92 69 42 35 57 70 52 22 3 351 342 337 331 330 324 320 332 340 334 314 275 274 293 276 237 229 225 220 211 282 294 294 291 293 296 297 288 279